When you browse on this site, cookies collect data to enhance your experience and personalize the content and advertising you see.
Visit our Privacy Policy to learn more. By continuing to use the site, you agree to this use of cookies and data.
  • In France
  • List of Countries
  • For 7 days
  • Water Temperature
  • Weather Map
  • Weather Widgets
  • user-avatar
    Login

    Hourly Weather Calgary

    Today, 3 April, Friday

    Time Temperature Precipitation Wind Pressure Humidity
    00:00 -15°C° 0 mm 3 mps 667 mmHg 74%
    01:00 -15°C° 0 mm 3 mps 667 mmHg 74%
    02:00 -14°C° 0 mm 2 mps 666 mmHg 76%
    03:00 -15°C° 0 mm 2 mps 666 mmHg 78%
    04:00 -16°C° 0 mm 3 mps 665 mmHg 78%
    05:00 -15°C° 0 mm 2 mps 665 mmHg 78%
    06:00 -14°C° 0 mm 2 mps 664 mmHg 78%
    07:00 -14°C° 0 mm 2 mps 664 mmHg 77%
    08:00 -13°C° 0 mm 2 mps 664 mmHg 75%
    09:00 -13°C° 0 mm 3 mps 663 mmHg 73%
    10:00 -12°C° 0 mm 3 mps 663 mmHg 71%
    11:00 -10°C° 0 mm 3 mps 663 mmHg 72%
    12:00 -10°C° 0 mm 3 mps 662 mmHg 72%
    13:00 -9°C° 0 mm 3 mps 662 mmHg 73%
    14:00 -9°C° 0 mm 3 mps 662 mmHg 75%
    15:00 -10°C° 0 mm 3 mps 662 mmHg 78%
    16:00 -11°C° 0 mm 4 mps 661 mmHg 81%
    17:00 -10°C° 0 mm 3 mps 662 mmHg 84%
    18:00 -12°C° 0 mm 3 mps 662 mmHg 87%
    19:00 -13°C° 0 mm 3 mps 662 mmHg 91%
    20:00 -13°C° 0.1 mm 3 mps 662 mmHg 91%
    21:00 -13°C° 0.1 mm 3 mps 662 mmHg 92%
    22:00 -14°C° 0.1 mm 3 mps 662 mmHg 92%
    23:00 -14°C° 0.1 mm 3 mps 662 mmHg 92%

    Tomorrow, 4 April, Saturday

    Time Temperature Precipitation Wind Pressure Humidity
    00:00 -14°C° 0.1 mm 3 mps 663 mmHg 91%
    01:00 -15°C° 0.1 mm 3 mps 663 mmHg 91%
    02:00 -15°C° 0 mm 3 mps 663 mmHg 90%
    03:00 -16°C° 0 mm 3 mps 663 mmHg 90%
    04:00 -16°C° 0 mm 3 mps 663 mmHg 90%
    05:00 -15°C° 0 mm 2 mps 664 mmHg 87%
    06:00 -14°C° 0 mm 2 mps 664 mmHg 84%
    07:00 -14°C° 0 mm 2 mps 664 mmHg 82%
    08:00 -12°C° 0 mm 2 mps 664 mmHg 77%
    09:00 -9°C° 0 mm 1 mps 664 mmHg 73%
    10:00 -7°C° 0 mm 1 mps 664 mmHg 69%
    11:00 -8°C° 0 mm 2 mps 664 mmHg 69%
    12:00 -7°C° 0 mm 2 mps 663 mmHg 68%
    13:00 -7°C° 0 mm 3 mps 663 mmHg 68%
    14:00 -8°C° 0 mm 3 mps 663 mmHg 73%
    15:00 -8°C° 0 mm 3 mps 663 mmHg 77%
    16:00 -10°C° 0 mm 4 mps 662 mmHg 81%
    17:00 -10°C° 0 mm 3 mps 662 mmHg 85%
    18:00 -12°C° 0 mm 3 mps 662 mmHg 89%
    19:00 -13°C° 0 mm 3 mps 662 mmHg 93%
    20:00 -13°C° 0 mm 3 mps 662 mmHg 93%
    21:00 -14°C° 0 mm 3 mps 662 mmHg 93%
    22:00 -14°C° 0 mm 3 mps 662 mmHg 93%
    23:00 -14°C° 0 mm 3 mps 662 mmHg 93%

    Day after tomorrow, 5 April, Sunday

    Time Temperature Precipitation Wind Pressure Humidity
    00:00 -14°C° 0 mm 3 mps 662 mmHg 93%
    01:00 -14°C° 0 mm 3 mps 661 mmHg 93%
    02:00 -14°C° 0 mm 3 mps 661 mmHg 93%
    03:00 -14°C° 0 mm 3 mps 661 mmHg 93%
    04:00 -14°C° 0 mm 3 mps 661 mmHg 93%
    05:00 -14°C° 0.1 mm 3 mps 661 mmHg 92%
    06:00 -13°C° 0.1 mm 3 mps 661 mmHg 91%
    07:00 -13°C° 0.1 mm 3 mps 661 mmHg 91%
    08:00 -12°C° 0.1 mm 3 mps 660 mmHg 88%
    09:00 -10°C° 0.1 mm 3 mps 660 mmHg 86%
    10:00 -10°C° 0.1 mm 4 mps 660 mmHg 83%
    11:00 -9°C° 0 mm 4 mps 660 mmHg 82%
    12:00 -8°C° 0 mm 4 mps 659 mmHg 82%
    13:00 -7°C° 0 mm 4 mps 659 mmHg 81%
    14:00 -7°C° 0.1 mm 4 mps 659 mmHg 82%
    15:00 -7°C° 0.1 mm 4 mps 659 mmHg 84%
    16:00 -7°C° 0.1 mm 4 mps 658 mmHg 86%
    17:00 -8°C° 0.1 mm 4 mps 659 mmHg 89%
    18:00 -7°C° 0.1 mm 3 mps 659 mmHg 92%
    19:00 -8°C° 0.1 mm 3 mps 659 mmHg 95%
    20:00 -7°C° 0.1 mm 2 mps 659 mmHg 95%
    21:00 -7°C° 0.1 mm 2 mps 659 mmHg 95%
    22:00 -6°C° 0.1 mm 1 mps 659 mmHg 95%
    23:00 -6°C° 0.1 mm 1 mps 658 mmHg 95%

    6 April, Monday

    Time Temperature Precipitation Wind Pressure Humidity
    00:00 -7°C° 0.1 mm 1 mps 658 mmHg 95%
    01:00 -7°C° 0.1 mm 0 mps 657 mmHg 95%
    02:00 -7°C° 0 mm 1 mps 657 mmHg 95%
    03:00 -7°C° 0 mm 1 mps 657 mmHg 95%
    04:00 -7°C° 0 mm 1 mps 657 mmHg 95%
    05:00 -8°C° 0 mm 2 mps 657 mmHg 93%
    06:00 -7°C° 0 mm 2 mps 657 mmHg 92%
    07:00 -8°C° 0 mm 3 mps 657 mmHg 90%
    08:00 -7°C° 0 mm 3 mps 657 mmHg 87%
    09:00 -5°C° 0 mm 2 mps 657 mmHg 83%
    10:00 -4°C° 0 mm 2 mps 657 mmHg 80%
    11:00 -3°C° 0 mm 2 mps 657 mmHg 78%
    12:00 0°C° 0 mm 1 mps 657 mmHg 75%
    13:00 0°C° 0 mm 0 mps 657 mmHg 73%
    14:00 +1°C° 0 mm 1 mps 657 mmHg 74%
    15:00 +1°C° 0 mm 2 mps 657 mmHg 74%
    16:00 +1°C° 0 mm 2 mps 657 mmHg 75%
    17:00 -1°C° 0 mm 2 mps 657 mmHg 80%
    18:00 -3°C° 0 mm 2 mps 657 mmHg 84%
    19:00 -2°C° 0 mm 1 mps 657 mmHg 88%
    20:00 -4°C° 0 mm 2 mps 658 mmHg 87%
    21:00 -4°C° 0 mm 2 mps 659 mmHg 85%
    22:00 -5°C° 0 mm 3 mps 659 mmHg 84%
    23:00 -5°C° 0 mm 3 mps 659 mmHg 79%

    7 April, Tuesday

    Time Temperature Precipitation Wind Pressure Humidity
    00:00 -5°C° 0 mm 3 mps 660 mmHg 75%
    01:00 -5°C° 0 mm 3 mps 660 mmHg 70%
    02:00 -5°C° 0 mm 3 mps 660 mmHg 72%
    03:00 -6°C° 0 mm 3 mps 661 mmHg 73%
    04:00 -6°C° 0 mm 3 mps 661 mmHg 75%
    05:00 -6°C° 0 mm 3 mps 661 mmHg 77%
    06:00 -6°C° 0 mm 3 mps 662 mmHg 79%
    07:00 -4°C° 0 mm 2 mps 662 mmHg 80%
    08:00 -3°C° 0 mm 2 mps 662 mmHg 75%
    09:00 -2°C° 0 mm 2 mps 663 mmHg 70%
    10:00 -1°C° 0 mm 3 mps 663 mmHg 65%
    11:00 0°C° 0 mm 3 mps 663 mmHg 64%
    12:00 0°C° 0 mm 3 mps 663 mmHg 64%
    13:00 +1°C° 0 mm 3 mps 664 mmHg 63%
    14:00 0°C° 0 mm 3 mps 664 mmHg 66%
    15:00 0°C° 0 mm 3 mps 664 mmHg 68%
    16:00 -1°C° 0 mm 3 mps 664 mmHg 71%
    17:00 -2°C° 0.1 mm 3 mps 666 mmHg 79%
    18:00 -3°C° 0.1 mm 2 mps 667 mmHg 86%
    19:00 -1°C° 0.1 mm 1 mps 668 mmHg 93%
    20:00 -2°C° 0.5 mm 1 mps 669 mmHg 93%
    21:00 -4°C° 0.5 mm 2 mps 670 mmHg 93%
    22:00 -4°C° 0.5 mm 2 mps 671 mmHg 92%
    23:00 -4°C° 0.1 mm 2 mps 671 mmHg 90%

    8 April, Wednesday

    Time Temperature Precipitation Wind Pressure Humidity
    00:00 -5°C° 0.1 mm 2 mps 671 mmHg 87%
    01:00 -5°C° 0.1 mm 2 mps 672 mmHg 84%
    02:00 -5°C° 0 mm 2 mps 672 mmHg 84%
    03:00 -5°C° 0 mm 2 mps 672 mmHg 84%
    04:00 -4°C° 0 mm 1 mps 673 mmHg 83%
    05:00 -3°C° 0 mm 1 mps 673 mmHg 80%
    06:00 -2°C° 0 mm 1 mps 673 mmHg 77%
    07:00 -2°C° 0 mm 1 mps 673 mmHg 74%
    08:00 -3°C° 0 mm 2 mps 673 mmHg 72%
    09:00 -2°C° 0 mm 3 mps 673 mmHg 71%
    10:00 -1°C° 0 mm 4 mps 673 mmHg 69%
    11:00 0°C° 0 mm 4 mps 672 mmHg 68%
    12:00 +1°C° 0 mm 4 mps 672 mmHg 67%
    13:00 +3°C° 0 mm 4 mps 672 mmHg 66%
    14:00 +3°C° 0 mm 4 mps 671 mmHg 66%
    15:00 +3°C° 0 mm 4 mps 671 mmHg 66%
    16:00 +4°C° 0 mm 4 mps 670 mmHg 66%
    17:00 +2°C° 0 mm 3 mps 670 mmHg 70%
    18:00 +1°C° 0 mm 3 mps 669 mmHg 75%
    19:00 +1°C° 0 mm 2 mps 669 mmHg 79%
    20:00 -1°C° 0 mm 2 mps 669 mmHg 80%
    21:00 -1°C° 0 mm 2 mps 668 mmHg 81%
    22:00 -1°C° 0 mm 2 mps 668 mmHg 83%
    23:00 -1°C° 0 mm 2 mps 668 mmHg 81%
    Show more